Location: Newark
(45.9456°N, 15.4064°E)
Time: 20:58:33
(UTC+00:00)

Vanguard 3 - Pass Details

Date: 26 January 2020
Orbit: 508 x 3263 km, 33.3° (Epoch: 25 February)

Event Time Altitude Azimuth Distance (km) Brightness Sun altitude
Rises 12:30:32 0° 174° (S) 6,426 12.8 22.8°
Reaches altitude 10° 12:38:46 10° 151° (SSE) 5,894 12.2 22.3°
Maximum altitude 12:45:29 13° 129° (SE) 5,863 11.8 21.8°
Drops below altitude 10° 12:52:27 10° 108° (ESE) 6,202 11.6 21.3°
Sets 13:01:32 0° 86° (E) 7,082 11.6 20.6°
